| time (UTC) | temp F | wind direction | speed MPH | gust MPH | rain 1hr in | rain 24hr in | rain mn in | humidity % | barometer mb |
| 20260504081500 | 40 | 225 | 1.0 | 2.0 | 0.00 | 0.00 | 0.00 | 92 | 1012.7 |
| 20260504050000 | 41 | 0.0 | 0.0 | 0.00 | 0.00 | 0.00 | 83 | 1012.2 | |
| 20260504044500 | 41 | 274 | 0.0 | 1.0 | 0.00 | 0.00 | 0.00 | 82 | 1012.1 |
| 20260504043000 | 41 | 227 | 0.0 | 1.0 | 0.00 | 0.00 | 0.00 | 82 | 1012.1 |
| 20260504041500 | 42 | 270 | 0.0 | 0.0 | 0.00 | 0.00 | 0.00 | 80 | 1011.9 |
| 20260504040000 | 42 | 312 | 0.0 | 1.0 | 0.00 | 0.00 | 0.00 | 79 | 1011.9 |
| 20260504034500 | 42 | 319 | 0.0 | 1.0 | 0.00 | 0.00 | 0.00 | 77 | 1011.9 |
| 20260504033000 | 43 | 0.0 | 0.0 | 0.00 | 0.00 | 0.00 | 75 | 1011.9 | |
| 20260504031500 | 43 | 0.0 | 0.0 | 0.00 | 0.00 | 0.00 | 75 | 1011.9 | |
| 20260504030000 | 44 | 278 | 0.0 | 1.0 | 0.00 | 0.00 | 0.00 | 72 | 1011.9 |
| 20260504024500 | 44 | 238 | 0.0 | 1.0 | 0.00 | 0.00 | 0.00 | 69 | 1012.0 |
| 20260504023000 | 44 | 271 | 0.0 | 0.0 | 0.00 | 0.00 | 0.00 | 70 | 1012.0 |
| 20260504021500 | 45 | 286 | 0.0 | 0.0 | 0.00 | 0.00 | 0.00 | 68 | 1011.9 |
| 20260504020000 | 46 | 282 | 0.0 | 1.0 | 0.00 | 0.00 | 0.00 | 67 | 1011.8 |
| 20260504014500 | 47 | 276 | 0.0 | 0.0 | 0.00 | 0.00 | 0.00 | 63 | 1011.7 |
| 20260504013000 | 48 | 0.0 | 0.0 | 0.00 | 0.00 | 0.00 | 62 | 1011.7 | |
| 20260504011500 | 49 | 0.0 | 0.0 | 0.00 | 0.00 | 0.00 | 58 | 1011.6 | |
| 20260504010000 | 50 | 0.0 | 0.0 | 0.00 | 0.00 | 0.00 | 55 | 1011.3 | |
| 20260504004500 | 51 | 254 | 0.0 | 1.0 | 0.00 | 0.00 | 0.00 | 51 | 1011.2 |
| 20260504003000 | 52 | 294 | 0.0 | 0.0 | 0.00 | 0.00 | 0.00 | 47 | 1011.0 |
| 20260504001500 | 53 | 325 | 0.0 | 1.0 | 0.00 | 0.00 | 0.00 | 45 | 1010.7 |
| 20260504000000 | 54 | 279 | 0.0 | 0.0 | 0.00 | 0.00 | 0.00 | 41 | 1010.5 |
| 20260503234500 | 55 | 310 | 0.0 | 2.0 | 0.00 | 0.00 | 0.00 | 40 | 1010.3 |
| 20260503233000 | 56 | 296 | 1.0 | 2.0 | 0.00 | 0.00 | 0.00 | 41 | 1010.2 |
| 20260503231500 | 56 | 337 | 1.0 | 2.0 | 0.00 | 0.00 | 0.00 | 39 | 1010.0 |
| 20260503230000 | 57 | 0.0 | 0.0 | 0.00 | 0.00 | 0.00 | 36 | 1009.9 | |
| 20260503224500 | 58 | 48 | 1.0 | 2.0 | 0.00 | 0.00 | 0.00 | 35 | 1009.7 |
| 20260503223000 | 58 | 329 | 1.0 | 2.0 | 0.00 | 0.00 | 0.00 | 34 | 1009.6 |
| 20260503221500 | 58 | 4 | 1.0 | 3.0 | 0.00 | 0.00 | 0.00 | 32 | 1009.6 |
| 20260503220000 | 58 | 334 | 1.0 | 2.0 | 0.00 | 0.00 | 0.00 | 34 | 1009.6 |
| 20260503214500 | 58 | 33 | 3.0 | 6.0 | 0.00 | 0.00 | 0.00 | 31 | 1009.5 |
| 20260503213000 | 58 | 19 | 3.0 | 4.0 | 0.00 | 0.00 | 0.00 | 29 | 1009.6 |
| 20260503211500 | 58 | 255 | 1.0 | 2.0 | 0.00 | 0.00 | 0.00 | 34 | 1009.6 |
| 20260503210000 | 59 | 67 | 2.0 | 6.0 | 0.00 | 0.00 | 0.00 | 32 | 1009.6 |
| 20260503204500 | 59 | 101 | 3.0 | 5.0 | 0.00 | 0.00 | 0.00 | 32 | 1009.5 |
| 20260503203000 | 59 | 0.0 | 0.0 | 0.00 | 0.00 | 0.00 | 34 | 1009.7 | |
| 20260503201500 | 59 | 30 | 3.0 | 6.0 | 0.00 | 0.00 | 0.00 | 32 | 1009.6 |
| 20260503200000 | 58 | 47 | 2.0 | 3.0 | 0.00 | 0.00 | 0.00 | 34 | 1009.7 |
| 20260503194500 | 59 | 320 | 2.0 | 3.0 | 0.00 | 0.00 | 0.00 | 34 | 1010.0 |
| 20260503193000 | 60 | 10 | 2.0 | 6.0 | 0.00 | 0.00 | 0.00 | 37 | 1010.0 |
| 20260503191500 | 60 | 131 | 4.0 | 8.0 | 0.00 | 0.00 | 0.00 | 35 | 1010.2 |
| 20260503190000 | 59 | 97 | 1.0 | 4.0 | 0.00 | 0.00 | 0.00 | 35 | 1010.2 |
| 20260503184500 | 57 | 352 | 2.0 | 4.0 | 0.00 | 0.00 | 0.00 | 36 | 1010.4 |
| 20260503183000 | 57 | 18 | 3.0 | 5.0 | 0.00 | 0.00 | 0.00 | 36 | 1010.5 |
| 20260503181500 | 58 | 75 | 2.0 | 3.0 | 0.00 | 0.00 | 0.00 | 39 | 1010.5 |
| 20260503180000 | 56 | 28 | 2.0 | 6.0 | 0.00 | 0.00 | 0.00 | 38 | 1010.6 |
| 20260503174500 | 55 | 89 | 1.0 | 3.0 | 0.00 | 0.00 | 0.00 | 43 | 1010.8 |
| 20260503173000 | 56 | 32 | 2.0 | 6.0 | 0.00 | 0.00 | 0.00 | 39 | 1010.9 |
| 20260503171500 | 55 | 289 | 2.0 | 3.0 | 0.00 | 0.00 | 0.00 | 43 | 1011.0 |